Hourly Data Report for October 31, 2014

All times are specified in Local Standard Time (LST). Add 1 hour to adjust for Daylight Saving Time where and when it is observed.

HALL BEACH A
NUNAVUT

68°46'33.000" N
81°14'33.000" W
9.10 m
2402354
71293
YUX

Download Data

Hourly Data (October 2014)
Hourly Data Report for October 31, 2014
Temp Definition
°C
Dew Point Temp Definition
°C
Rel Hum Definition
%
Wind Dir Definition
10's deg

Wind Spd Definition
km/h
Visibility Definition
km
Stn Press Definition
kPa
Hmdx Definition


Wind Chill Definition


Weather Definition


TIME
00:00 Legend Double Dagger -12.6 -14.1 89 35 34 8.1 101.56   -23 Snow
01:00 Legend Double Dagger -15.2 -16.6 89 32 30 16.1 101.55   -26 Snow
02:00 Legend Double Dagger -17.7 -19.3 87 32 26 16.1 101.58   -29 LegendNANA
03:00 Legend Double Dagger -15.5 -16.4 93 34 32 12.9 101.59   -27 Snow
04:00 Legend Double Dagger -14.8 -16.1 90 33 24 12.9 101.62   -25 Snow
05:00 Legend Double Dagger -11.4 -12.9 89 36 32 16.1 101.62   -22 Snow
06:00 Legend Double Dagger -11.6 -12.8 91 36 32 16.1 101.62   -22 Snow
07:00 Legend Double Dagger -11.2 -12.3 92 35 28 16.1 101.64   -21 LegendNANA
08:00 Legend Double Dagger -10.6 -11.7 92 36 28 16.1 101.65   -20 LegendNANA
09:00 Legend Double Dagger -11.0 -12.0 92 36 30 16.1 101.70   -21 LegendNANA
10:00 Legend Double Dagger -10.5 -11.4 93 36 30 16.1 101.70   -20 Snow
11:00 Legend Double Dagger -10.6 -11.7 92 36 30 16.1 101.71   -20 Snow
12:00 Legend Double Dagger -11.0 -12.2 91 35 30 16.1 101.74   -21 Snow
13:00 Legend Double Dagger -10.5 -11.7 91 36 30 16.1 101.76   -20 Snow
14:00 Legend Double Dagger -10.4 -11.6 91 36 32 16.1 101.79   -20 LegendNANA
15:00 Legend Double Dagger -11.2 -12.3 92 35 26 16.1 101.82   -20 LegendNANA
16:00 Legend Double Dagger -10.8 -11.9 92 36 32 16.1 101.89   -21 LegendNANA
17:00 Legend Double Dagger -11.0 -12.2 91 36 35 11.3 101.93   -22 Snow
18:00 Legend Double Dagger -11.1 -12.3 91 36 34 16.1 101.93   -22 Snow
19:00 Legend Double Dagger -11.7 -12.9 91 36 28 16.1 101.97   -21 LegendNANA
20:00 Legend Double Dagger -11.3 -12.4 92 1 28 16.1 101.95   -21 LegendNANA
21:00 Legend Double Dagger -17.8 -19.3 88 32 26 9.7 101.97   -29 Snow
22:00 Legend Double Dagger -15.0 -15.9 93 36 26 16.1 101.96   -25 LegendNANA
23:00 Legend Double Dagger -15.4 -16.7 90 35 22 3.6 101.94   -25 Snow

Notes on Data Quality.

Legend

  • E = Estimated
  • M = Missing
  • NA = Not Available
  • ‡ = Partner data that is not subject to review by the National Climate Archives
Date modified: